This demonstration page uses our WeatherBlox Daily Observations layout. Learn more.

Left ArrowRight Arrow

Hourly Observations for July 20, 2018

Temp ( °F °C ) Dew Point ( °F °C ) Humidity (%) Winds ( mph kmh ) Pressure ( in mb ) Visibility ( mi km ) Precip ( " mm )
12:53 am 00:53 Clear 84 28.9 65 18.3 53 53 N 3 6 29.78 1008 10 16 0.00 0.00
1:53 am 01:53 Clear 84 28.9 60 15.6 44 44 N 5 7 29.80 1009 10 16 0.00 0.00
2:53 am 02:53 Clear 80 26.7 61 16.1 52 52 Calm 29.79 1009 10 16 0.00 0.00
3:53 am 03:53 Clear 77 25 60 15.6 56 56 Calm 29.80 1009 10 16 0.00 0.00
4:53 am 04:53 Clear 75 23.9 61 16.1 62 62 Calm 29.82 1010 10 16 0.00 0.00
5:53 am 05:53 Clear 74 23.3 59 15 60 60 Calm 29.83 1010 10 16 0.00 0.00
6:53 am 06:53 Sunny 75 23.9 60 15.6 60 60 Calm 29.84 1011 10 16 0.00 0.00
7:53 am 07:53 Sunny 79 26.1 57 13.9 47 47 SE 3 6 29.85 1011 10 16 0.00 0.00
8:53 am 08:53 Sunny 82 27.8 55 12.8 40 40 SSE 3 6 29.86 1011 10 16 0.00 0.00
9:53 am 09:53 Sunny 87 30.6 50 10 28 28 S 6 9 29.85 1011 10 16 0.00 0.00
10:53 am 10:53 Sunny 90 32.2 50 10 25 25 SSE 3 6 29.85 1011 10 16 0.00 0.00
11:53 am 11:53 Sunny 94 34.4 51 10.6 23 23 VRB 3 6 29.83 1010 10 16 0.00 0.00
12:53 pm 12:53 Sunny 96 35.6 51 10.6 22 22 Calm 29.82 1010 10 16 0.00 0.00
1:53 pm 13:53 Sunny 100 37.8 47 8.3 16 16 S 10 17 29.80 1009 10 16 0.00 0.00
2:53 pm 14:53 Sunny 104 40 41 5 12 12 S 12 19 29.78 1009 10 16 0.00 0.00
3:53 pm 15:53 Sunny 102 38.9 38 3.3 11 11 SSE 12 19 29.77 1008 10 16 0.00 0.00
4:53 pm 16:53 Sunny 101 38.3 30 -1.1 8 8 SSW 13 20 29.77 1008 10 16 0.00 0.00
5:53 pm 17:53 Sunny 99 37.2 29 -1.7 8 8 S 12 19 29.77 1008 10 16 0.00 0.00
6:53 pm 18:53 Sunny 99 37.2 34 1.1 10 10 SSE 13 20 29.76 1008 10 16 0.00 0.00
7:53 pm 19:53 Sunny 95 35 42 5.6 16 16 S 9 15 29.77 1008 10 16 0.00 0.00
8:53 pm 20:53 Clear 91 32.8 49 9.4 24 24 S 8 13 29.78 1009 10 16 0.00 0.00
9:53 pm 21:53 Clear 85 29.4 49 9.4 29 29 ENE 5 7 29.81 1010 10 16 0.00 0.00
10:53 pm 22:53 Clear 82 27.8 52 11.1 35 35 Calm 29.83 1010 10 16 0.00 0.00
11:53 pm 23:53 Clear 79 26.1 50 10 36 36 NE 3 6 29.83 1010 10 16 0.00 0.00

Powered by AerisWeather